Other Surface Observations
Issued by NWS

Home | Current Version | Previous Version | Text Only | Print | Product List | Glossary On
Versions: 1 2 3 4 5 6 7 8 9 10 11 12 13 14 15 16 17 18 19 20 21 22 23 24 25 26 27 28 29 30 31 32 33 34 35 36 37 38 39 40 41 42 43 44 45 46 47 48 49 50
000
SXUS52 KTAE 022318
OSOTAE
OSOTAE
North Florida/South Alabama/Southwest Georgia Weather Roundup
National Weather Service Tallahassee Florida
600 PM EST MON MAR 02 2015

Note: "fair" indicates few or no clouds below 12,000 feet with no
significant weather and/or obstructions to visibility.

!FLZ017-115-028-034-025-030000
...North Florida...

CITY           SKY/WX    TMP DP  RH WIND       PRES   REMARKS
TALLAHASSEE    CLOUDY    75  61  61 NE3       30.22S
APALACHICOLA   CLOUDY    70  62  76 W5        30.22F
PERRY          CLOUDY    71  65  81 SW6       30.22S
CROSS CITY       N/A     74  66  76 W9        30.21R
JACKSONVILLE   MOCLDY    66  61  84 E7        30.21S
$$

!FLZ112-006-005-002-011-030000
...Florida Panhandle...

CITY           SKY/WX    TMP DP  RH WIND       PRES   REMARKS
MARIANNA       MOCLDY    67  63  87 NE5       30.23S
BONIFAY        CLOUDY    67  60  78 N6        30.24S
PANAMA CITY NW FAIR      71  63  75 S5        30.22S
TYNDALL AFB    MOCLDY    66  62  85 SW6       30.22F
TYND DRONE APT FAIR      65  62  91 SW3       30.22F
DE FUNIAK SPR  FAIR      70  64  80 CALM      30.23S
EGLIN AFB      CLOUDY    63  61  93 S5        30.23S
DESTIN         CLOUDY    64  62  93 VRB3      30.24S
HURLBURT       FOG       63  61  94 S1        30.22F VSB 1/2
CRESTVIEW      CLOUDY    72  64  76 S6        30.23F
PENSACOLA      CLOUDY    65  62  90 SE7       30.22F
$$

!ALZ063-066-030000
...South Alabama...

CITY           SKY/WX    TMP DP  RH WIND       PRES   REMARKS
DOTHAN         CLOUDY    65  61  87 CALM      30.26F
OZARK CAIRNS   CLOUDY    64  59  82 SE5       30.22F
FT RUCKER HELI CLOUDY    66  61  84 CALM      30.23R
RUCKER HELI 3  MOCLDY    64  61  88 S2        30.25R
RUCKER HELI 2  CLOUDY    65  61  87 S3        30.21F
FLORALA APT    CLOUDY    70  63  78 CALM      30.24S
ANDALUSIA      LGT RAIN  70  63  78 N9        30.24R
TROY           LGT RAIN  61  60  97 CALM      30.26R FOG
EUFALA         CLOUDY    66  59  77 S3        30.22F
MOBILE         RAIN      65  65 100 E3        30.22S FOG
$$

!GAZ120>161-030000
...Southwest and South Central Georgia...

CITY           SKY/WX    TMP DP  RH WIND       PRES   REMARKS
THOMASVILLE    CLOUDY    70  63  78 N3        30.24S
BAINBRIDGE     CLOUDY    68  63  83 CALM      30.25S
MOODY AFB      PTCLDY    69  61  76 NW8       30.22S
VALDOSTA       MOCLDY    69  62  78 CALM      30.23S
MOULTRIE       CLOUDY    68  63  83 NW3       30.25R
BLAKELY        CLOUDY    68  61  77 CALM      30.25S
ALBANY         MOCLDY    66  59  78 SW3       30.25F
TIFTON         FAIR      66  59  78 CALM      30.24R
FITZGERALD     FAIR      69  60  73 CALM      30.26R
CORDELE        FAIR      70  60  70 SW7       30.24S
AMERICUS       CLOUDY    70  61  73 SW6       30.25R
HOMERVILLE     FAIR      72  64  78 NW5       30.23S
$$

!GMZ750-755-770-775-030000
...Coastal and Buoy Obs...

STATION/POSITION TIME  TEMP    WIND        PRES    VSBY  WAVE
                       AIR SEA DIR/SP/G                  HT/PER
                 (UTC) (F)     (DEG/KT/KT) (MB)    (MI)  (FT/S)
KEATON BEACH     2300   61      CALM  /  1 1023.6F
CEDAR KEY        2257   69     300/  5/  7 1023.6R
C TOWER          2300   60     310/  2/  2 1023.5F
APALACHICOLA BUO 2300   65 67  340/  4/  6 1023.6S         1/ 6
PANAMA CITY BUOY 2250   67 68   60/  2/  2 1023.7F         2/ 6
MOBILE BUOY      2240   71 72  140/  8/ 10 1023.2F         3/ 6
ORANGE BCH AL BU 2300   65 64  120/  6/  6 1022.6F         2/ 6
$$



USA.gov is the U.S. government's official web portal to all federal, state and local government web resources and services.